QPF
0.00 0.00 0.00 0.00 0.00 0.00 0.00 0.00 0.00 0.00 0.00 0.00 0.00 0.00 0.00 0.00 0.00 0.01 0.00 0.00 0.00 0.00 0.00 0.00 0.00 0.00 0.00 0.00 0.00 0.00 0.00 0.00 0.00 0.00 0.00 0.00 0.00 0.00 0.00 0.00 0.00 0.00 0.00 0.00 0.00 0.00 0.00 0.00 0.00
0.00 0.00 0.00 0.00 0.00 0.00 0.00 0.00 0.00 0.00 0.00 0.00 0.00 0.00 0.00 0.00 0.00 0.00 0.00 0.00 0.00 0.00 0.00 0.00 0.00 0.00 0.00 0.00 0.00 0.00 0.00 0.00 0.00 0.00 0.00 0.00 0.00 0.00 0.00 0.00 0.00 0.00 0.00 0.00 0.00 0.00 0.00 0.00 0.00
0.00 0.00 0.00 0.00 0.00 0.00 0.00 0.00 0.00 0.00 0.00 0.00 0.00 0.00 0.00 0.00 0.00 0.00 0.00 0.00 0.00 0.00 0.00 0.00 0.00 0.00 0.00 0.00 0.00 0.00 0.00 0.00 0.00 0.00 0.00 0.00 0.00 0.00 0.00 0.00 0.00 0.00 0.00 0.00 0.00 0.00 0.00 0.00 0.00
0.00 0.00 0.00 0.00 0.00 0.00 0.00 0.00 0.00 0.00 0.00 0.00 0.00 0.00 0.00 0.00 0.00 0.00 0.00 0.00 0.00 0.00 0.00 0.00 0.00 0.00 0.00 0.00 0.00 0.00 0.00 0.00 0.00 0.00 0.00 0.00 0.00 0.00 0.00 0.00 0.00 0.00 0.00 0.00 0.00 0.00 0.00 0.00 0.00
0.00 0.00 0.00 0.00 0.00 0.00 0.00 0.00 0.00 0.00 0.00 0.00 0.00 0.00 0.00 0.00 0.00 0.00 0.00 0.00 0.00 0.00 0.00 0.00 0.00 0.00 0.00 0.00 0.00 0.00 0.00 0.00 0.00 0.00 0.00 0.00 0.00 0.00 0.00 0.00 0.00 0.00 0.00 0.00 0.00 0.00 0.00 0.00 0.00
0.00 0.00 0.00 0.00 0.00 0.00 0.00 0.00 0.00 0.00 0.00 0.00 0.00 0.00 0.00 0.00 0.00 0.00 0.00 0.00 0.00 0.00 0.00 0.00 0.00 0.00 0.00 0.00 0.00 0.00 0.00 0.00 0.00 0.00 0.00 0.00 0.00 0.00 0.00 0.00 0.00 0.00 0.00 0.00 0.00 0.00 0.00 0.00 0.00
0.00 0.00 0.00 0.00 0.00 0.00 0.00 0.00 0.00 0.00 0.00 0.00 0.00 0.00 0.00 0.00 0.00 0.00 0.00 0.00 0.00 0.00 0.00 0.00 0.00 0.00 0.00 0.00 0.00 0.00 0.00 0.00 0.00 0.00 0.00 0.00 0.00 0.00 0.00 0.00 0.00 0.00 0.00 0.00 0.00 0.00 0.00 0.00 0.00
0.00 0.00 0.00 0.00 0.00 0.00 0.00 0.00 0.00 0.00 0.00 0.00 0.00 0.00 0.00 0.00 0.00 0.00 0.00 0.00 0.00 0.00 0.00 0.00 0.00 0.00 0.00 0.00 0.00 0.00 0.00 0.00 0.00 0.00 0.00 0.00 0.00 0.00 0.00 0.00 0.00 0.00 0.00 0.00 0.00 0.00 0.00 0.00 0.00
0.00 0.00 0.00 0.00 0.00 0.00 0.00 0.00 0.00 0.00 0.00 0.00 0.00 0.00 0.00 0.00 0.00 0.00 0.00 0.00 0.00 0.00 0.00 0.00 0.00 0.00 0.00 0.00 0.00 0.00 0.00 0.00 0.00 0.00 0.00 0.00 0.00 0.00 0.00 0.00 0.00 0.00 0.00 0.00 0.00 0.00 0.00 0.00 0.00
0.00 0.00 0.00 0.00 0.00 0.00 0.00 0.00 0.00 0.00 0.00 0.00 0.00 0.00 0.00 0.00 0.00 0.00 0.00 0.00 0.00 0.00 0.00 0.00 0.00 0.00 0.00 0.00 0.00 0.00 0.00 0.00 0.00 0.00 0.00 0.00 0.00 0.00 0.00 0.00 0.00 0.00 0.00 0.00 0.00 0.00 0.00 0.00 0.00
0.00 0.00 0.00 0.00 0.00 0.00 0.00 0.00 0.00 0.00 0.00 0.00 0.00 0.00 0.00 0.00 0.00 0.00 0.00 0.00 0.00 0.00 0.00 0.00 0.00 0.00 0.00 0.00 0.00 0.00 0.00 0.00 0.00 0.00 0.00 0.00 0.00 0.00 0.00 0.00 0.00 0.00 0.00 0.00 0.00 0.00 0.00 0.00 0.00
0.00 0.00 0.00 0.00 0.00 0.00 0.00 0.00 0.00 0.00 0.00 0.00 0.00 0.00 0.00 0.00 0.00 0.00 0.00 0.00 0.00 0.00 0.00 0.00 0.01 0.00 0.00 0.00 0.00 0.00 0.00 0.00 0.00 0.00 0.00 0.00 0.00 0.00 0.00 0.00 0.00 0.00 0.00 0.00 0.00 0.00 0.00 0.00 0.00
0.00 0.00 0.00 0.00 0.00 0.00 0.00 0.00 0.00 0.00 0.00 0.00 0.00 0.00 0.00 0.00 0.00 0.00 0.00 0.00 0.00 0.01 0.01 0.02 0.06 0.01 0.00 0.00 0.00 0.00 0.00 0.00 0.00 0.00 0.00 0.00 0.00 0.00 0.00 0.00 0.00 0.00 0.00 0.00 0.00 0.00 0.00 0.00 0.00
0.00 0.00 0.00 0.00 0.00 0.00 0.00 0.00 0.00 0.00 0.00 0.00 0.00 0.00 0.00 0.00 0.00 0.00 0.00 0.00 0.00 0.00 0.01 0.04 0.11 0.10 0.01 0.00 0.00 0.00 0.00 0.00 0.00 0.00 0.00 0.00 0.00 0.00 0.00 0.00 0.00 0.00 0.00 0.00 0.00 0.00 0.00 0.00 0.00
0.00 0.00 0.00 0.00 0.00 0.00 0.00 0.00 0.00 0.00 0.00 0.00 0.00 0.00 0.00 0.00 0.00 0.00 0.00 0.00 0.00 0.00 0.00 0.05 0.06 0.15 0.07 0.00 0.00 0.00 0.00 0.00 0.00 0.00 0.00 0.00 0.00 0.00 0.00 0.00 0.00 0.00 0.00 0.00 0.00 0.00 0.00 0.00 0.00
0.00 0.00 0.00 0.00 0.00 0.00 0.00 0.00 0.00 0.00 0.00 0.00 0.00 0.00 0.00 0.00 0.00 0.00 0.00 0.00 0.00 0.00 0.00 0.01 0.10 0.11 0.11 0.03 0.00 0.00 0.00 0.00 0.00 0.00 0.00 0.00 0.00 0.00 0.00 0.00 0.00 0.00 0.00 0.00 0.00 0.00 0.00 0.00 0.01
0.00 0.00 0.00 0.00 0.00 0.00 0.00 0.00 0.00 0.00 0.00 0.00 0.00 0.00 0.00 0.00 0.00 0.00 0.00 0.00 0.00 0.00 0.00 0.00 0.03 0.15 0.15 0.11 0.01 0.00 0.00 0.00 0.00 0.00 0.00 0.00 0.00 0.00 0.00 0.00 0.00 0.00 0.00 0.00 0.00 0.00 0.00 0.00 0.01
0.00 0.00 0.00 0.00 0.00 0.00 0.00 0.00 0.00 0.00 0.00 0.00 0.00 0.00 0.00 0.00 0.00 0.00 0.00 0.00 0.00 0.00 0.00 0.00 0.01 0.11 0.18 0.21 0.10 0.01 0.00 0.00 0.00 0.00 0.00 0.00 0.00 0.00 0.00 0.00 0.00 0.00 0.00 0.00 0.00 0.00 0.00 0.00 0.00
0.00 0.00 0.00 0.00 0.00 0.00 0.00 0.00 0.00 0.00 0.00 0.00 0.00 0.00 0.00 0.00 0.00 0.00 0.00 0.00 0.00 0.00 0.00 0.00 0.01 0.05 0.16 0.20 0.14 0.02 0.00 0.00 0.00 0.00 0.00 0.00 0.00 0.00 0.00 0.00 0.00 0.00 0.00 0.00 0.00 0.00 0.00 0.00 0.00
0.00 0.00 0.00 0.00 0.00 0.00 0.00 0.00 0.00 0.00 0.00 0.00 0.00 0.00 0.00 0.00 0.00 0.00 0.00 0.00 0.00 0.00 0.00 0.00 0.01 0.03 0.12 0.12 0.11 0.05 0.00 0.00 0.00 0.00 0.00 0.00 0.00 0.00 0.00 0.00 0.00 0.00 0.00 0.01 0.00 0.00 0.00 0.00 0.00
0.00 0.00 0.00 0.00 0.00 0.00 0.00 0.00 0.00 0.00 0.00 0.00 0.00 0.00 0.00 0.00 0.00 0.00 0.00 0.00 0.00 0.00 0.00 0.00 0.02 0.03 0.10 0.09 0.19 0.15 0.03 0.00 0.00 0.00 0.00 0.00 0.00 0.00 0.00 0.00 0.00 0.00 0.00 0.00 0.00 0.00 0.00 0.00 0.00
0.00 0.00 0.00 0.00 0.00 0.00 0.00 0.00 0.00 0.00 0.00 0.00 0.00 0.00 0.00 0.00 0.00 0.00 0.00 0.00 0.00 0.00 0.00 0.00 0.02 0.04 0.10 0.11 0.10 0.09 0.05 0.00 0.00 0.00 0.00 0.00 0.00 0.00 0.00 0.00 0.00 0.00 0.00 0.00 0.00 0.00 0.00 0.00 0.00
0.00 0.00 0.00 0.00 0.00 0.00 0.00 0.00 0.00 0.00 0.00 0.00 0.00 0.00 0.00 0.00 0.00 0.00 0.00 0.00 0.00 0.00 0.00 0.00 0.03 0.06 0.07 0.12 0.05 0.07 0.06 0.00 0.00 0.00 0.00 0.00 0.00 0.00 0.00 0.00 0.00 0.00 0.00 0.00 0.00 0.00 0.00 0.00 0.00
0.00 0.00 0.00 0.00 0.00 0.00 0.00 0.00 0.00 0.00 0.00 0.00 0.00 0.00 0.00 0.00 0.00 0.00 0.00 0.00 0.00 0.00 0.00 0.00 0.02 0.05 0.06 0.06 0.06 0.05 0.04 0.00 0.00 0.00 0.00 0.00 0.00 0.00 0.00 0.00 0.00 0.00 0.00 0.00 0.00 0.00 0.00 0.00 0.00
0.00 0.00 0.00 0.00 0.00 0.00 0.00 0.00 0.00 0.00 0.00 0.00 0.00 0.00 0.00 0.00 0.00 0.00 0.00 0.00 0.00 0.00 0.00 0.00 0.02 0.04 0.10 0.06 0.06 0.06 0.05 0.01 0.00 0.00 0.00 0.00 0.00 0.00 0.00 0.00 0.00 0.00 0.00 0.00 0.00 0.00 0.00 0.00 0.00
0.00 0.00 0.01 0.01 0.00 0.00 0.00 0.00 0.00 0.00 0.00 0.00 0.00 0.00 0.00 0.00 0.00 0.00 0.00 0.00 0.00 0.00 0.00 0.00 0.05 0.06 0.07 0.10 0.06 0.05 0.06 0.02 0.00 0.00 0.00 0.00 0.00 0.00 0.00 0.00 0.00 0.00 0.00 0.00 0.00 0.00 0.00 0.00 0.00
0.00 0.00 0.00 0.01 0.00 0.00 0.00 0.00 0.00 0.00 0.00 0.00 0.00 0.00 0.00 0.00 0.00 0.00 0.00 0.00 0.00 0.00 0.00 0.00 0.03 0.10 0.06 0.06 0.08 0.07 0.07 0.02 0.00 0.00 0.00 0.00 0.00 0.01 0.00 0.00 0.00 0.00 0.00 0.00 0.00 0.00 0.00 0.00 0.00
0.00 0.00 0.01 0.04 0.03 0.01 0.00 0.00 0.00 0.00 0.00 0.00 0.00 0.00 0.00 0.00 0.00 0.00 0.00 0.00 0.00 0.00 0.00 0.00 0.00 0.06 0.09 0.03 0.03 0.05 0.04 0.03 0.02 0.01 0.00 0.00 0.02 0.01 0.00 0.00 0.00 0.00 0.00 0.00 0.00 0.00 0.00 0.00 0.00
0.00 0.00 0.01 0.02 0.02 0.03 0.01 0.00 0.00 0.00 0.00 0.00 0.00 0.00 0.00 0.00 0.00 0.00 0.00 0.00 0.00 0.00 0.00 0.00 0.01 0.02 0.10 0.06 0.02 0.04 0.03 0.03 0.03 0.03 0.03 0.03 0.02 0.00 0.00 0.00 0.00 0.00 0.00 0.00 0.00 0.00 0.00 0.00 0.00
0.00 0.00 0.02 0.03 0.03 0.04 0.03 0.00 0.00 0.00 0.00 0.00 0.00 0.00 0.00 0.00 0.00 0.00 0.00 0.00 0.00 0.00 0.00 0.00 0.00 0.01 0.04 0.12 0.07 0.02 0.07 0.06 0.05 0.08 0.07 0.04 0.01 0.01 0.00 0.00 0.00 0.00 0.00 0.00 0.00 0.00 0.00 0.00 0.00
MSLP
1010.05 1008.83 1007.48 1006.10 1004.67 1001.70 999.04 997.51 996.59 996.67 997.56 998.03 998.66 999.04 998.45 998.13 998.54 1000.31 1001.95 1002.42 1001.95 1003.05 1004.76 1006.02 1006.53 1007.17 1007.61 1008.18 1008.45 1009.14 1009.52 1010.02 1010.44 1010.66 1011.09 1011.40 1011.42 1011.49 1011.58 1011.61 1012.04 1012.18 1012.26 1012.44 1012.57 1012.74 1012.93 1013.05 1013.14
1009.16 1007.80 1006.96 1004.84 1002.82 999.65 997.56 996.96 996.34 997.56 998.04 999.18 999.55 999.77 999.36 998.96 999.66 1000.32 1001.23 1002.41 1002.06 1002.99 1004.79 1005.86 1006.92 1007.32 1007.68 1008.15 1008.64 1009.08 1009.76 1010.20 1010.52 1011.06 1011.41 1011.66 1011.82 1011.76 1011.96 1011.96 1012.18 1012.39 1012.34 1012.60 1012.84 1013.00 1013.10 1013.19 1013.29
1009.65 1007.58 1005.73 1003.30 1001.35 999.05 996.98 996.20 996.60 997.94 998.80 999.45 999.48 999.87 999.52 1000.30 1000.83 1001.62 1002.54 1002.52 1002.68 1003.15 1004.68 1006.06 1007.27 1007.62 1008.02 1008.25 1008.78 1009.29 1009.89 1010.19 1010.75 1011.28 1011.50 1011.94 1012.10 1012.08 1012.18 1012.31 1012.33 1012.50 1012.48 1012.62 1012.87 1013.07 1013.25 1013.34 1013.33
1007.74 1006.86 1005.57 1002.70 999.98 998.44 997.85 997.68 998.75 998.92 999.63 999.95 1000.01 1000.01 1000.00 1001.39 1002.10 1002.77 1002.98 1002.73 1002.45 1002.78 1003.99 1006.75 1007.61 1007.91 1008.26 1008.51 1009.17 1009.57 1010.20 1010.48 1010.79 1011.30 1011.54 1011.90 1012.14 1012.30 1012.42 1012.55 1012.62 1012.66 1012.74 1012.82 1013.04 1013.16 1013.24 1013.39 1013.37
1007.38 1005.18 1003.37 1001.46 1000.10 998.98 998.50 999.47 1000.04 1000.02 999.82 999.79 1000.39 1000.48 1000.02 1000.86 1002.14 1002.46 1002.56 1003.29 1002.54 1002.54 1003.48 1006.30 1007.64 1008.07 1008.42 1008.94 1009.32 1009.75 1010.28 1010.58 1010.92 1011.39 1011.75 1012.08 1012.25 1012.36 1012.59 1012.68 1012.78 1012.82 1012.95 1012.94 1013.10 1013.26 1013.36 1013.35 1013.36
1005.82 1004.50 1002.49 1000.48 999.17 998.69 998.78 1000.03 1000.72 1000.67 1000.23 1000.18 1000.55 1000.91 1000.67 1000.63 1001.70 1002.52 1002.16 1002.92 1002.78 1002.86 1003.83 1006.02 1007.63 1008.29 1008.52 1009.04 1009.44 1010.18 1010.42 1010.64 1011.04 1011.46 1011.91 1012.12 1012.33 1012.42 1012.65 1012.73 1012.81 1012.90 1013.07 1013.08 1013.08 1013.24 1013.40 1013.29 1013.28
1005.44 1003.40 1002.04 1000.64 999.35 998.58 999.52 1000.87 1001.56 1001.52 1000.96 1000.57 1000.85 1001.04 1001.19 1000.59 1001.92 1002.49 1002.60 1002.99 1003.28 1003.22 1004.20 1006.14 1007.31 1008.18 1008.75 1009.25 1009.51 1009.92 1010.88 1010.94 1011.28 1011.52 1011.98 1012.18 1012.28 1012.62 1012.48 1012.88 1012.78 1012.84 1013.13 1013.15 1013.03 1013.15 1013.41 1013.28 1013.21
1005.64 1004.02 1002.25 1000.70 1000.11 999.73 1000.10 1001.40 1002.46 1002.73 1002.06 1001.67 1002.22 1001.93 1001.20 1001.43 1002.37 1002.70 1002.32 1002.36 1003.04 1003.39 1004.38 1005.84 1006.83 1007.85 1008.24 1008.98 1009.92 1009.84 1010.63 1010.96 1011.26 1011.72 1012.14 1012.31 1012.48 1012.58 1012.57 1012.88 1012.88 1012.88 1013.04 1013.10 1013.06 1013.05 1013.14 1013.15 1013.05
1006.08 1004.39 1002.06 1000.77 1000.33 1000.96 1001.32 1002.70 1003.05 1003.50 1003.88 1003.48 1003.08 1002.56 1002.21 1002.32 1002.73 1002.57 1002.19 1003.02 1002.35 1002.84 1004.09 1005.46 1006.26 1007.09 1007.37 1008.04 1009.51 1010.13 1010.60 1010.97 1011.15 1011.51 1011.92 1012.21 1011.75 1012.14 1012.42 1012.39 1012.72 1012.82 1012.96 1013.08 1013.05 1012.95 1012.83 1012.70 1012.64
1005.82 1003.86 1002.30 1002.61 1002.66 1002.78 1002.80 1003.54 1003.69 1003.92 1003.70 1003.37 1002.88 1002.65 1002.63 1002.54 1002.52 1002.58 1002.43 1001.97 1003.12 1002.58 1003.60 1005.04 1005.76 1006.52 1006.91 1007.39 1008.90 1009.37 1009.91 1010.54 1010.69 1010.92 1011.45 1011.03 1010.76 1011.26 1011.30 1012.19 1012.80 1012.73 1012.86 1012.84 1012.70 1012.54 1012.13 1012.38 1011.68
1005.10 1004.42 1003.34 1004.01 1004.12 1004.41 1004.33 1004.09 1004.08 1003.77 1003.34 1003.20 1002.96 1002.68 1002.74 1002.68 1002.78 1002.82 1002.69 1001.97 1002.42 1003.26 1002.93 1004.47 1005.40 1006.14 1006.60 1006.96 1008.25 1008.52 1009.00 1009.44 1010.07 1010.37 1010.87 1010.27 1010.30 1011.03 1011.07 1011.71 1012.23 1012.10 1012.43 1011.97 1012.10 1011.91 1011.54 1011.16 1011.00
1005.96 1004.91 1004.74 1004.75 1004.77 1004.91 1004.72 1004.34 1004.02 1003.83 1003.48 1003.45 1003.32 1003.22 1003.26 1003.05 1002.97 1002.72 1002.30 1001.86 1002.10 1003.76 1004.43 1004.46 1005.35 1005.76 1006.26 1006.58 1007.70 1007.75 1008.07 1008.50 1009.00 1009.67 1010.46 1009.95 1010.32 1010.76 1010.49 1010.42 1010.74 1011.08 1011.03 1010.69 1011.02 1010.13 1011.27 1011.40 1011.62
1005.82 1005.20 1005.20 1005.13 1005.04 1004.84 1004.68 1004.30 1003.80 1003.45 1003.33 1003.33 1003.33 1003.30 1003.11 1003.02 1002.84 1002.97 1002.66 1002.44 1003.10 1004.01 1004.92 1005.20 1005.16 1005.98 1006.03 1006.22 1006.99 1007.16 1007.52 1007.97 1008.36 1009.03 1009.75 1009.64 1009.98 1010.40 1010.27 1010.23 1010.11 1010.57 1010.26 1010.69 1010.56 1010.59 1011.24 1011.36 1011.34
1005.82 1005.90 1005.46 1005.06 1004.50 1004.50 1004.37 1003.84 1003.48 1002.99 1003.01 1003.14 1003.33 1003.14 1002.90 1002.84 1002.79 1003.10 1003.14 1003.11 1003.57 1003.49 1004.57 1005.34 1005.63 1006.18 1006.04 1006.24 1006.63 1006.74 1007.18 1007.57 1007.93 1008.42 1009.16 1009.50 1009.57 1009.94 1010.02 1010.36 1010.21 1010.19 1010.26 1010.34 1010.33 1010.41 1011.09 1011.37 1011.49
1006.43 1005.88 1004.84 1004.04 1004.04 1004.06 1004.08 1003.46 1002.18 1002.20 1002.74 1003.14 1003.10 1003.04 1002.87 1002.85 1002.93 1003.00 1003.17 1003.33 1003.64 1003.93 1003.99 1005.14 1005.81 1005.98 1006.40 1006.25 1006.76 1006.86 1007.06 1007.22 1007.68 1008.12 1008.73 1009.07 1009.55 1009.95 1009.72 1009.88 1009.94 1010.05 1010.30 1010.59 1010.56 1011.17 1011.44 1011.50 1012.22
1005.82 1005.09 1003.66 1002.43 1003.54 1003.53 1003.58 1002.72 1001.88 1001.92 1002.77 1002.85 1002.80 1002.90 1002.93 1002.72 1002.77 1002.92 1003.01 1003.22 1003.59 1003.78 1003.96 1004.19 1005.36 1006.02 1006.37 1006.13 1006.59 1006.80 1006.94 1007.27 1007.61 1008.01 1008.76 1009.06 1009.32 1009.86 1009.75 1009.42 1009.82 1009.76 1010.27 1010.55 1010.64 1011.25 1011.23 1011.78 1012.50
1003.72 1003.79 1003.05 1002.76 1002.72 1003.38 1003.44 1002.36 1002.13 1002.10 1002.10 1002.25 1002.36 1002.26 1002.31 1002.16 1002.14 1002.33 1002.72 1002.99 1003.34 1003.72 1003.81 1003.89 1004.56 1005.44 1005.98 1006.15 1006.09 1006.30 1006.42 1006.94 1007.17 1007.53 1008.29 1009.05 1009.29 1009.56 1009.56 1009.12 1009.54 1009.90 1010.44 1010.56 1010.99 1011.20 1011.54 1012.19 1012.46
1004.96 1004.53 1003.95 1003.40 1003.17 1002.88 1002.52 1001.72 1001.68 1001.45 1001.37 1001.21 1001.04 1001.09 1001.52 1001.48 1001.55 1001.73 1002.00 1002.44 1002.70 1003.16 1003.46 1003.53 1003.63 1004.64 1005.44 1005.81 1005.85 1005.76 1006.04 1006.66 1006.78 1007.14 1007.92 1008.72 1009.00 1009.14 1009.33 1009.22 1009.65 1010.29 1010.64 1010.92 1010.98 1011.21 1011.87 1012.14 1012.27
1006.42 1005.66 1004.60 1003.87 1003.30 1002.94 1002.30 1001.43 1001.14 1001.08 1000.82 1000.55 1000.48 1000.36 1000.66 1000.87 1000.89 1001.16 1001.39 1001.84 1002.26 1002.71 1003.03 1003.19 1003.24 1003.67 1004.84 1005.50 1005.70 1005.28 1005.52 1005.94 1006.24 1006.78 1007.38 1008.43 1008.58 1008.79 1009.41 1009.02 1009.65 1010.39 1010.36 1010.64 1011.09 1011.63 1012.10 1012.00 1012.26
1006.26 1005.42 1004.33 1003.48 1003.20 1003.26 1002.34 1001.09 1000.41 999.96 999.85 1000.02 999.96 999.92 1000.05 1000.28 1000.26 1000.49 1000.88 1001.20 1001.68 1002.13 1002.42 1002.63 1002.79 1003.20 1004.04 1004.87 1005.13 1004.82 1004.86 1005.31 1005.35 1006.40 1007.04 1007.85 1008.09 1008.54 1009.01 1008.91 1009.49 1010.13 1010.23 1010.79 1011.36 1011.71 1011.72 1011.94 1012.38
1005.62 1005.05 1004.37 1004.21 1003.92 1003.16 1001.23 999.83 998.59 998.12 998.92 999.07 999.37 999.72 999.94 1000.04 1000.02 1000.15 1000.32 1000.50 1000.64 1001.32 1001.75 1001.88 1002.34 1002.64 1003.30 1004.17 1004.60 1004.62 1004.13 1004.64 1005.13 1005.84 1006.74 1007.26 1007.76 1008.14 1008.72 1008.98 1009.16 1009.71 1009.90 1010.80 1011.62 1011.86 1011.86 1011.71 1012.38
1005.80 1005.32 1005.32 1004.70 1003.84 1002.01 1001.44 998.70 998.20 997.68 998.12 998.52 999.08 999.14 999.39 999.53 999.58 999.70 999.76 999.90 999.78 1000.17 1000.92 1001.19 1001.62 1002.25 1002.85 1003.62 1004.01 1004.25 1004.18 1003.70 1004.29 1005.11 1006.21 1006.72 1007.35 1007.83 1008.30 1008.83 1009.18 1009.61 1009.94 1010.06 1011.35 1011.77 1011.77 1012.03 1012.04
1006.20 1005.92 1005.50 1004.44 1003.22 1002.18 1000.25 998.38 996.99 997.09 997.22 997.29 997.99 998.44 998.97 999.34 999.60 999.51 999.23 999.00 999.13 999.32 999.98 1000.54 1000.96 1001.76 1002.36 1003.08 1003.54 1003.96 1003.91 1003.48 1004.06 1004.72 1005.96 1006.26 1007.31 1007.68 1008.03 1008.72 1009.16 1009.60 1009.98 1010.44 1011.10 1011.80 1012.05 1011.97 1011.66
1005.84 1005.19 1004.28 1002.73 1001.79 1000.54 998.53 998.13 997.13 996.92 997.58 997.92 998.41 998.66 998.99 999.20 999.44 999.40 998.99 998.61 998.54 998.69 998.93 999.62 1000.38 1001.22 1002.09 1002.53 1003.18 1003.40 1003.48 1003.31 1004.04 1004.89 1005.84 1005.68 1006.87 1007.64 1007.87 1008.60 1009.27 1009.62 1010.09 1010.74 1011.34 1011.92 1012.07 1011.92 1011.90
1005.17 1004.88 1003.73 1001.36 1001.23 1000.14 999.74 998.31 996.80 996.79 997.67 998.16 998.50 998.45 998.86 999.24 999.21 999.09 998.45 998.25 998.04 998.47 998.60 998.50 999.68 1000.74 1001.86 1002.13 1002.80 1003.14 1003.31 1003.68 1004.48 1004.72 1005.08 1005.44 1006.54 1007.18 1007.68 1008.65 1009.23 1009.80 1010.17 1010.82 1011.19 1012.00 1012.08 1012.34 1012.34
1005.76 1005.84 1005.57 1004.33 1002.38 1000.64 999.44 997.81 996.71 996.59 997.33 997.96 998.56 998.85 999.18 999.18 998.92 998.92 999.10 999.05 998.61 998.22 998.12 998.07 999.27 1000.48 1001.39 1001.96 1002.41 1002.65 1002.84 1003.47 1004.25 1004.32 1005.41 1005.46 1005.87 1007.11 1007.94 1008.81 1009.42 1009.84 1010.19 1010.76 1011.38 1011.88 1012.07 1012.53 1012.71
1005.69 1005.97 1006.52 1005.98 1004.43 1002.33 999.95 997.94 998.04 997.60 998.02 998.32 998.58 998.85 998.90 998.89 998.77 999.02 999.01 999.02 998.71 998.70 998.31 997.85 998.60 1000.10 1000.84 1001.30 1001.90 1002.09 1002.79 1003.10 1003.44 1004.04 1004.96 1005.28 1005.39 1007.04 1008.14 1008.82 1009.38 1010.02 1010.10 1010.74 1011.59 1011.68 1012.01 1012.74 1012.99
1005.39 1005.77 1006.24 1006.60 1005.16 1002.72 1000.50 999.00 997.37 998.32 998.53 998.56 998.51 998.72 999.16 998.85 998.70 999.02 998.87 998.73 998.91 998.90 998.58 997.92 997.38 999.10 1000.53 1001.04 1001.70 1002.06 1002.72 1002.86 1003.09 1004.01 1004.76 1004.62 1005.15 1006.85 1008.01 1008.60 1009.41 1009.92 1010.18 1010.87 1011.40 1012.12 1012.18 1012.88 1013.15
1004.72 1005.30 1006.27 1007.61 1006.44 1004.42 1002.05 999.69 998.72 999.40 999.75 1000.00 999.78 999.79 999.88 999.64 999.25 999.25 999.36 998.73 998.94 998.72 998.47 997.49 996.87 997.71 999.55 1000.55 1000.86 1001.86 1002.82 1003.14 1002.88 1004.03 1004.61 1004.32 1005.56 1006.84 1007.48 1008.39 1009.21 1009.50 1010.13 1010.88 1011.54 1011.81 1012.40 1012.92 1013.37
1005.05 1005.10 1005.80 1007.60 1006.20 1005.20 1004.04 1000.48 1000.07 1000.33 1000.30 1000.42 1000.75 1000.57 1000.17 1000.16 999.92 999.21 999.08 998.90 998.85 998.46 998.22 997.08 996.66 996.66 998.10 999.74 1000.36 1001.21 1001.68 1002.22 1002.46 1004.45 1004.72 1004.91 1006.02 1006.57 1007.32 1008.14 1008.66 1009.34 1010.10 1010.88 1011.39 1011.92 1012.23 1013.08 1013.35
Thickness
5781 5792 5805 5803 5779 5799 5804 5823 5855 5840 5838 5852 5854 5847 5848 5860 5844 5812 5861 5867 5876 5867 5854 5844 5840 5834 5830 5827 5825 5821 5821 5816 5813 5813 5811 5810 5810 5808 5807 5809 5805 5803 5801 5799 5795 5792 5788 5785 5782
5784 5795 5796 5794 5776 5789 5813 5841 5836 5835 5837 5845 5842 5841 5840 5835 5855 5855 5856 5865 5873 5866 5851 5842 5833 5828 5824 5821 5821 5820 5817 5812 5811 5809 5807 5807 5806 5806 5803 5805 5804 5801 5801 5798 5793 5789 5786 5784 5781
5778 5793 5782 5785 5785 5788 5815 5848 5841 5837 5836 5834 5831 5844 5841 5823 5845 5846 5857 5861 5864 5860 5849 5837 5828 5823 5818 5815 5817 5814 5812 5809 5805 5804 5805 5804 5802 5803 5802 5800 5801 5799 5799 5797 5792 5789 5785 5782 5780
5781 5781 5781 5772 5785 5815 5819 5827 5820 5821 5826 5831 5830 5820 5840 5842 5836 5841 5851 5856 5859 5858 5851 5828 5821 5819 5815 5815 5811 5810 5806 5803 5803 5801 5803 5802 5801 5800 5799 5797 5797 5796 5795 5794 5790 5787 5785 5781 5779
5778 5783 5767 5774 5783 5808 5817 5813 5808 5805 5814 5820 5820 5809 5820 5838 5844 5843 5847 5846 5851 5855 5851 5827 5816 5813 5810 5809 5808 5806 5804 5801 5798 5797 5798 5798 5798 5799 5796 5795 5794 5794 5792 5791 5788 5785 5782 5780 5778
5766 5778 5762 5768 5790 5809 5813 5807 5798 5799 5810 5813 5811 5805 5810 5839 5834 5838 5846 5843 5849 5848 5844 5824 5809 5803 5804 5804 5802 5799 5798 5797 5795 5794 5792 5795 5795 5797 5794 5792 5792 5792 5789 5788 5787 5784 5781 5780 5778
5757 5769 5762 5774 5784 5797 5794 5797 5782 5787 5795 5800 5810 5793 5810 5826 5825 5834 5837 5838 5839 5843 5837 5821 5809 5801 5798 5798 5798 5798 5791 5793 5791 5790 5788 5791 5793 5792 5795 5789 5791 5790 5786 5785 5786 5783 5779 5779 5778
5758 5763 5758 5774 5767 5773 5793 5780 5781 5773 5777 5802 5802 5780 5791 5807 5821 5827 5833 5834 5833 5834 5830 5820 5812 5805 5801 5797 5790 5795 5790 5790 5789 5786 5785 5786 5788 5790 5791 5788 5788 5788 5785 5784 5784 5783 5780 5778 5777
5759 5742 5751 5767 5765 5764 5779 5756 5770 5771 5761 5772 5782 5788 5798 5801 5817 5816 5818 5817 5827 5828 5824 5817 5813 5807 5807 5802 5790 5788 5786 5786 5787 5786 5785 5785 5790 5789 5789 5789 5787 5786 5785 5782 5781 5781 5781 5781 5779
5738 5742 5753 5752 5753 5747 5754 5749 5748 5745 5749 5759 5770 5787 5792 5793 5800 5798 5802 5810 5807 5819 5819 5814 5811 5807 5806 5804 5792 5787 5786 5783 5786 5787 5786 5790 5795 5792 5793 5787 5783 5785 5784 5783 5782 5782 5785 5781 5784
5739 5728 5747 5737 5738 5734 5732 5737 5743 5735 5734 5749 5755 5769 5773 5779 5784 5789 5796 5806 5805 5807 5819 5813 5809 5805 5803 5803 5794 5793 5790 5789 5785 5786 5786 5793 5795 5791 5792 5788 5784 5786 5785 5787 5784 5785 5786 5787 5785
5709 5729 5728 5726 5725 5721 5716 5731 5728 5728 5733 5745 5754 5762 5759 5761 5771 5780 5788 5798 5799 5794 5797 5803 5803 5802 5800 5801 5793 5796 5793 5792 5790 5787 5784 5792 5791 5789 5794 5795 5793 5791 5792 5795 5790 5797 5786 5783 5780
5705 5714 5716 5718 5714 5714 5716 5714 5720 5722 5732 5740 5744 5748 5750 5752 5760 5768 5777 5784 5784 5783 5784 5790 5797 5794 5796 5799 5795 5796 5794 5792 5790 5788 5784 5790 5790 5787 5791 5793 5795 5792 5795 5791 5792 5792 5785 5782 5781
5705 5701 5703 5707 5711 5707 5702 5708 5716 5723 5728 5725 5728 5734 5740 5743 5749 5753 5757 5761 5770 5781 5778 5781 5783 5786 5790 5792 5791 5794 5791 5789 5789 5788 5786 5786 5789 5789 5790 5787 5791 5792 5793 5791 5791 5792 5785 5781 5779
5693 5684 5698 5705 5705 5699 5701 5694 5705 5725 5720 5711 5713 5719 5728 5730 5737 5740 5744 5749 5756 5764 5774 5771 5772 5778 5779 5785 5784 5787 5787 5787 5786 5786 5786 5787 5786 5786 5790 5790 5789 5791 5789 5786 5787 5783 5779 5778 5771
5684 5689 5684 5710 5700 5699 5695 5677 5707 5719 5707 5702 5706 5707 5712 5720 5723 5732 5737 5739 5746 5756 5762 5770 5768 5767 5770 5779 5779 5781 5782 5783 5782 5783 5781 5784 5785 5782 5786 5792 5788 5789 5786 5784 5784 5779 5777 5772 5765
5697 5676 5684 5688 5703 5688 5682 5680 5697 5707 5707 5702 5703 5705 5708 5715 5719 5725 5728 5731 5736 5742 5751 5760 5765 5763 5765 5770 5777 5778 5780 5779 5780 5782 5782 5779 5782 5781 5784 5791 5789 5784 5781 5781 5778 5776 5772 5764 5762
5665 5664 5670 5667 5680 5684 5679 5685 5694 5703 5704 5705 5710 5711 5705 5711 5715 5719 5721 5725 5728 5734 5742 5751 5760 5761 5762 5765 5769 5774 5776 5775 5780 5782 5781 5777 5779 5780 5782 5787 5784 5778 5775 5773 5775 5772 5767 5763 5760
5656 5652 5652 5665 5677 5669 5672 5680 5687 5694 5698 5701 5705 5707 5705 5704 5714 5715 5715 5718 5720 5724 5731 5739 5749 5758 5756 5755 5757 5765 5769 5773 5778 5781 5781 5774 5777 5779 5777 5784 5779 5774 5773 5773 5771 5765 5759 5759 5759
5653 5649 5653 5667 5672 5662 5665 5673 5689 5695 5695 5697 5699 5700 5699 5700 5703 5706 5705 5708 5711 5714 5722 5731 5740 5749 5752 5752 5757 5765 5768 5770 5779 5776 5778 5774 5777 5777 5775 5779 5776 5772 5771 5769 5765 5761 5759 5756 5753
5655 5649 5649 5645 5653 5662 5672 5677 5695 5706 5699 5696 5695 5694 5691 5687 5687 5691 5694 5697 5706 5707 5713 5724 5731 5740 5746 5749 5753 5758 5766 5766 5767 5773 5773 5776 5777 5774 5772 5773 5775 5773 5773 5764 5758 5757 5755 5751 5748
5638 5656 5643 5638 5639 5641 5668 5658 5684 5695 5686 5685 5681 5681 5677 5674 5675 5679 5683 5686 5698 5707 5711 5718 5725 5730 5737 5743 5747 5749 5753 5763 5770 5771 5772 5773 5773 5771 5771 5769 5769 5769 5768 5768 5757 5755 5754 5750 5744
5637 5646 5637 5638 5639 5642 5664 5668 5691 5697 5682 5684 5678 5673 5668 5663 5659 5664 5672 5683 5691 5702 5706 5711 5719 5722 5728 5735 5741 5743 5749 5762 5764 5767 5760 5764 5762 5766 5767 5764 5763 5763 5764 5762 5757 5751 5747 5748 5749
5650 5643 5648 5655 5654 5642 5680 5666 5673 5682 5669 5668 5666 5663 5659 5657 5654 5656 5666 5676 5684 5696 5702 5707 5710 5714 5718 5727 5732 5739 5744 5754 5755 5754 5752 5757 5754 5755 5759 5757 5755 5758 5759 5754 5750 5746 5743 5745 5744
5650 5636 5622 5649 5635 5634 5658 5659 5675 5684 5669 5664 5656 5657 5653 5652 5651 5652 5660 5664 5675 5681 5691 5703 5704 5705 5707 5718 5724 5732 5738 5743 5739 5743 5750 5749 5745 5747 5750 5748 5748 5752 5753 5750 5748 5739 5739 5739 5737
5632 5624 5602 5587 5620 5641 5665 5649 5670 5690 5675 5663 5656 5650 5647 5645 5649 5646 5645 5650 5661 5674 5684 5693 5696 5696 5700 5708 5716 5725 5734 5736 5733 5735 5732 5741 5744 5739 5742 5741 5743 5746 5747 5745 5741 5737 5736 5732 5732
5627 5612 5618 5600 5618 5617 5648 5668 5667 5666 5660 5651 5646 5642 5641 5641 5643 5637 5641 5642 5652 5659 5671 5687 5691 5689 5694 5705 5710 5719 5722 5726 5732 5733 5731 5737 5746 5735 5735 5734 5734 5737 5741 5740 5733 5734 5733 5727 5726
5634 5633 5601 5597 5583 5599 5635 5641 5655 5646 5646 5648 5644 5639 5634 5639 5638 5633 5635 5638 5642 5652 5664 5679 5694 5687 5685 5695 5701 5709 5711 5722 5726 5725 5725 5736 5739 5732 5729 5731 5731 5732 5736 5733 5730 5725 5728 5722 5720
5630 5617 5607 5587 5596 5591 5598 5628 5652 5634 5630 5620 5623 5625 5623 5624 5627 5625 5624 5633 5637 5649 5659 5674 5689 5692 5685 5689 5699 5698 5700 5706 5718 5715 5718 5729 5729 5724 5727 5728 5727 5730 5730 5726 5722 5723 5720 5717 5713
5630 5621 5609 5556 5582 5587 5581 5604 5635 5625 5623 5618 5610 5610 5615 5614 5616 5620 5617 5627 5633 5643 5654 5670 5683 5694 5691 5690 5694 5695 5702 5706 5713 5703 5709 5720 5718 5720 5721 5722 5725 5726 5723 5720 5719 5716 5717 5709 5708